sat.trackr.live / text

‹ back to catalog

KUIPER-00082

NORAD 64828 · 2025-151N

PAYLOAD ACTIVE UNKNOWN

§ Identity

Operator
Country
US
Launch date
2025-07-16
Launch site
AFETR
Launch vehicle
Mass (kg)
RCS (m²)

External: N2YO · Heavens-Above · Gunter

§ Orbital elements

Epoch: 2026-05-25T03:35:42.491040Z

Period
97.30 min
Inclination
51.9018°
Eccentricity
0.0000638
Mean motion
14.79937122 rev/d
Perigee alt
629.1 km
Apogee alt
630.0 km
Semi-major
7,007.7 km
B*
4.9060e-4
RAAN
310.0044°
Arg perigee
111.5736°
Mean anomaly
248.5294°
Rev number
4,680

§ Raw data

KUIPER-000821 64828U 25151N   26145.14979735  .00003521  00000+0  49060-3 0  99972 64828  51.9018 310.0044 0000638 111.5736 248.5294 14.79937122 46804

JSON: /api/v1/satellites/64828 · /tle

For live sub-satellite position, see the globe view (requires WebGL).

§ Visibility from observer

Set your observer location to see the next 7 days of passes ≥ 10°. The values pass through the URL so the page stays shareable.

No JS? Fill the form by hand. The geolocation button needs JavaScript.